Vertical_Velocity
4 0 3 8 7 11 3 2 -12 6 8 14 -7 -15 -7 5 -2 4 -3 2 7 3 3 1 -4 -9 2 3 10 2 12 -8 -7 -1 -0 1 1 -3 5 5 -6 -4 12 -67
3 4 4 9 9 3 11 -1 6 3 18 -4 -21 -7 -1 -2 -1 8 -2 3 2 3 1 -1 -1 1 4 3 5 -6 15 -12 -4 0 4 8 -4 6 2 6 -2 -9 -8 -31
7 4 3 4 15 6 8 3 5 1 7 1 -11 2 4 -9 4 -0 -1 2 1 7 -4 -0 -3 5 2 0 -0 -0 3 -7 1 -2 2 4 -2 -1 2 -3 -4 -11 12 -36
1 8 -0 14 3 9 9 7 -17 8 -16 -37 -5 7 3 7 -12 -2 7 -3 -4 0 -3 4 -8 0 5 3 1 1 -7 -3 2 3 4 -0 -7 2 2 -2 7 -16 14 -23
3 4 12 7 3 7 5 6 -19 -7 -4 16 -1 7 -12 -0 13 -3 5 1 5 -1 -1 13 6 2 -3 -7 2 -1 -2 -4 -3 -5 3 -6 -12 -1 13 3 3 -12 -9 4
1 3 5 8 14 1 1 -2 -2 -2 13 -1 14 -36 21 18 8 1 4 2 -3 -10 11 4 -1 -2 4 -4 -1 4 -0 2 4 -14 6 -2 -25 17 7 -6 3 -9 -2 -2
3 1 6 3 27 7 0 10 15 4 -7 9 -10 10 19 10 7 4 5 -2 -1 15 12 -3 -6 -6 -1 1 1 4 2 4 5 -8 -2 -21 7 10 -3 -8 3 -6 1 -0
6 1 6 8 23 5 -7 2 -1 -3 -6 10 2 -0 4 15 2 -7 9 7 3 -1 -4 -2 -2 -4 -4 -3 2 1 1 4 -0 -16 4 -8 20 11 -11 -7 11 -3 -1 -1
2 7 -1 20 18 15 -0 1 7 -4 -0 -5 10 4 9 0 3 -6 -8 9 9 6 -6 -2 -14 -3 5 -1 -3 6 5 3 1 -3 -10 -21 17 -7 -3 -5 3 -2 -2 -1
3 5 4 17 13 19 -3 -1 2 1 -6 1 -1 0 2 7 -0 3 6 9 7 -1 -9 1 -3 -5 -1 -10 1 9 1 1 -5 -5 -8 -7 10 -3 -2 -5 5 1 -0 -1
4 3 12 7 18 14 -16 7 -2 1 -0 0 3 -1 1 1 -4 -2 17 -3 -14 -3 -10 -6 -0 -2 3 -6 2 9 7 -7 5 -4 -6 -6 1 2 -3 -4 0 -1 -2 -0
5 10 12 10 2 -1 -6 -5 0 1 -7 -0 -1 -2 7 9 0 -4 -8 1 3 5 -9 -1 3 -1 4 10 -10 1 -14 0 -4 -4 2 3 -0 2 -2 -1 -1 -2 -2 -0
0 1 -0 -3 0 -6 0 3 0 -3 -5 4 0 11 8 4 3 0 -7 5 -0 4 6 1 -10 -8 2 -2 -0 -5 3 1 -3 -6 23 -1 -1 3 -1 -2 -1 -1 -0 -1
1 2 0 3 3 0 -4 2 5 -2 1 -2 9 -2 7 6 3 -0 4 7 -6 -2 2 -4 -2 1 4 2 -3 -3 3 1 5 0 5 -2 1 0 -1 -1 -1 -2 -2 -1
2 3 4 4 3 4 2 8 3 -1 3 1 8 14 4 4 7 2 2 0 -1 2 1 -3 5 -1 1 3 -6 3 6 0 -2 2 -1 4 -1 -2 -1 1 -1 -2 -0 -1
4 4 4 3 1 2 -3 -5 -13 -7 -1 6 -3 1 4 3 10 5 -1 -0 0 -5 -1 0 -3 4 -4 -10 -4 9 -3 -1 -3 0 -0 2 0 0 -1 -1 -0 -1 -2 -2
3 4 4 5 3 1 -2 2 16 9 1 5 8 4 2 6 8 3 3 4 3 -0 -3 -1 -2 -1 -5 -5 7 -6 -4 -1 0 -2 -1 2 -2 -1 -1 -0 2 1 0 -3
-1 1 0 -0 3 7 0 5 5 2 3 -0 -2 -3 -8 1 4 1 -2 -1 -2 -1 -0 0 -2 -3 -2 4 -2 -0 -1 -2 -2 -1 -2 1 1 -0 -1 -1 -2 -1 0 -0
-0 -0 2 9 5 2 3 2 1 1 -0 3 -5 15 -1 10 -0 6 -1 -0 -1 -0 -1 -2 -3 3 1 -0 -1 -1 -1 0 -0 1 1 -0 -1 -1 -1 -0 -1 -0 1 2
-6 2 4 2 -1 2 9 9 1 -3 -5 -2 7 3 2 2 8 -2 -0 -1 -2 -3 1 -1 -1 1 0 1 -2 -1 2 1 -1 1 2 -0 -1 -2 -3 -3 -2 -3 -1 3
-6 -1 2 4 9 3 18 -6 2 -4 -4 5 5 6 2 0 -2 7 1 6 7 2 1 -3 0 5 -2 -3 1 2 -0 -2 -0 -1 -2 -3 -3 -2 -1 -2 -2 -0 0 0
0 -3 4 -1 -1 23 17 -1 7 12 -0 0 14 4 -1 7 10 2 1 1 1 -1 1 -4 4 4 -3 -1 1 -1 0 -0 -1 -2 -2 -2 -0 -1 2 1 -0 -0 -0 0
-5 -4 -7 -17 -27 -11 -12 -9 -6 2 1 1 0 2 -0 -4 -1 -1 -2 -2 -4 -1 -1 4 2 -4 1 -2 -1 0 -0 -1 -2 -2 -1 -1 -1 -0 -0 -0 -0 -1 -0 2
1 3 2 -9 -0 -4 -3 3 -3 4 -2 -1 1 -2 -3 2 1 1 1 -1 -0 -2 4 3 -4 1 -0 0 2 0 -2 -1 -1 -1 -1 -2 -3 -2 -1 -1 -1 0 0 1
-4 -2 -2 -2 -0 -0 1 2 1 -0 0 2 2 -0 0 -2 -2 0 -1 -0 -0 6 0 -0 0 1 -0 1 -1 -2 -1 -1 -0 -1 -1 -1 -2 -2 -3 -2 -3 2 1 1
-4 4 3 3 2 1 1 -0 1 3 2 -1 -1 -2 -1 1 -1 2 -0 2 2 0 1 0 1 0 1 -1 -3 -2 -1 -1 -1 -1 -2 -2 -2 -0 -1 -2 -2 0 0 -0
0 0 2 3 -0 -1 1 1 1 0 1 1 1 0 -1 5 2 2 4 3 1 1 1 1 0 -0 -1 -2 -2 -1 -1 -0 -1 -1 -1 -1 -2 -1 -0 -0 -0 -1 -0 1
Height
5461 5473 5487 5499 5508 5516 5520 5528 5535 5551 5554 5556 5559 5572 5590 5602 5607 5609 5614 5618 5623 5628 5631 5634 5637 5641 5643 5644 5645 5644 5645 5643 5646 5646 5646 5644 5643 5641 5639 5633 5634 5630 5620 5624
5441 5453 5465 5478 5489 5498 5508 5511 5524 5533 5538 5536 5550 5566 5581 5585 5596 5600 5603 5608 5613 5617 5621 5625 5628 5631 5633 5634 5636 5637 5638 5635 5636 5637 5638 5635 5633 5632 5629 5625 5623 5624 5612 5614
5425 5437 5448 5459 5471 5482 5491 5497 5505 5515 5520 5532 5546 5559 5566 5573 5584 5590 5595 5600 5603 5607 5611 5616 5618 5621 5623 5626 5628 5629 5627 5626 5627 5627 5626 5624 5623 5623 5620 5616 5613 5610 5607 5604
5409 5422 5434 5446 5452 5464 5472 5478 5484 5505 5508 5523 5538 5544 5556 5566 5574 5582 5586 5589 5593 5598 5603 5604 5607 5612 5615 5616 5618 5618 5617 5616 5617 5617 5616 5615 5615 5615 5611 5608 5607 5599 5600 5593
5392 5407 5420 5433 5439 5445 5453 5463 5475 5491 5505 5519 5524 5531 5546 5558 5563 5570 5574 5577 5584 5588 5594 5596 5600 5602 5604 5605 5608 5607 5607 5607 5608 5610 5608 5606 5608 5607 5604 5601 5597 5592 5589 5586
5376 5390 5407 5420 5428 5430 5436 5453 5466 5480 5494 5503 5509 5525 5542 5548 5553 5558 5564 5568 5574 5580 5584 5584 5587 5591 5594 5597 5600 5600 5600 5600 5599 5600 5599 5597 5600 5600 5595 5592 5588 5584 5580 5579
5360 5375 5391 5407 5417 5420 5430 5445 5460 5469 5480 5490 5507 5521 5527 5533 5542 5550 5554 5559 5565 5572 5573 5575 5577 5581 5584 5588 5591 5592 5593 5593 5590 5591 5590 5589 5593 5589 5585 5582 5581 5575 5574 5573
5346 5361 5378 5394 5405 5412 5421 5433 5446 5456 5469 5485 5493 5505 5516 5521 5527 5535 5544 5551 5556 5558 5560 5565 5568 5572 5576 5580 5582 5584 5586 5584 5583 5582 5581 5581 5583 5581 5576 5573 5575 5567 5568 5567
5333 5349 5366 5385 5395 5404 5413 5423 5436 5448 5460 5473 5486 5493 5500 5509 5519 5527 5535 5539 5544 5547 5551 5556 5560 5564 5569 5571 5574 5577 5578 5577 5577 5576 5573 5571 5574 5571 5567 5564 5566 5562 5562 5562
5323 5339 5357 5372 5386 5395 5404 5417 5429 5440 5450 5463 5473 5483 5492 5500 5508 5517 5524 5529 5533 5538 5544 5548 5553 5557 5560 5563 5567 5570 5570 5570 5570 5568 5565 5564 5568 5562 5560 5559 5563 5557 5557 5557
5315 5330 5349 5364 5376 5388 5397 5411 5420 5434 5445 5456 5463 5472 5483 5491 5500 5507 5514 5517 5526 5531 5536 5542 5546 5550 5554 5557 5560 5562 5563 5563 5563 5561 5559 5558 5559 5556 5555 5553 5551 5552 5552 5552
5310 5326 5342 5357 5370 5382 5392 5406 5417 5427 5436 5448 5456 5466 5476 5484 5491 5497 5503 5513 5520 5525 5530 5536 5539 5544 5547 5551 5552 5554 5555 5556 5555 5554 5554 5552 5551 5550 5549 5547 5546 5546 5547 5547
5307 5322 5337 5352 5365 5377 5391 5401 5411 5419 5430 5440 5450 5462 5469 5476 5483 5489 5498 5505 5512 5518 5523 5528 5532 5536 5540 5543 5546 5546 5547 5548 5547 5545 5548 5543 5541 5543 5542 5542 5541 5540 5540 5541
5305 5320 5334 5347 5359 5371 5384 5396 5406 5415 5425 5435 5446 5454 5465 5471 5479 5485 5492 5498 5504 5511 5517 5521 5526 5531 5534 5536 5537 5538 5540 5540 5539 5536 5536 5533 5534 5535 5536 5536 5535 5534 5533 5534
5304 5318 5331 5344 5356 5368 5380 5391 5401 5410 5422 5432 5442 5452 5459 5467 5476 5481 5487 5493 5499 5506 5511 5516 5521 5524 5527 5528 5529 5531 5533 5531 5528 5527 5527 5527 5527 5529 5529 5528 5528 5527 5527 5527
5305 5318 5330 5342 5353 5365 5375 5385 5396 5407 5417 5428 5437 5447 5456 5464 5472 5478 5484 5490 5495 5500 5505 5511 5514 5518 5519 5519 5520 5526 5523 5520 5518 5518 5518 5519 5521 5521 5520 5520 5519 5519 5518 5518
5307 5319 5330 5341 5353 5364 5374 5386 5397 5406 5415 5426 5437 5445 5454 5462 5469 5475 5481 5487 5492 5496 5500 5505 5508 5511 5511 5512 5516 5516 5513 5512 5511 5512 5512 5514 5513 5512 5511 5510 5509 5508 5508 5509
5312 5323 5334 5346 5358 5369 5378 5387 5395 5405 5416 5426 5435 5446 5454 5460 5466 5472 5478 5483 5487 5492 5496 5501 5503 5504 5506 5509 5509 5507 5506 5506 5506 5506 5505 5505 5505 5503 5501 5499 5497 5496 5496 5496
5319 5330 5342 5352 5362 5371 5382 5389 5397 5407 5421 5430 5438 5445 5451 5459 5465 5470 5475 5480 5484 5489 5492 5495 5498 5499 5501 5501 5500 5500 5501 5501 5501 5500 5499 5498 5495 5492 5489 5487 5485 5483 5483 5484
5327 5337 5347 5357 5367 5377 5387 5396 5404 5412 5420 5429 5437 5444 5450 5456 5463 5469 5475 5478 5482 5485 5489 5489 5490 5493 5493 5493 5494 5495 5496 5495 5494 5493 5491 5489 5487 5486 5483 5480 5478 5475 5473 5473
5334 5345 5355 5366 5376 5387 5399 5404 5410 5418 5424 5431 5438 5445 5450 5457 5464 5469 5473 5477 5480 5481 5484 5484 5486 5488 5487 5487 5490 5490 5490 5489 5488 5487 5486 5484 5482 5480 5477 5473 5470 5467 5465 5465
5350 5357 5366 5374 5384 5392 5400 5408 5416 5423 5429 5435 5441 5447 5452 5457 5461 5466 5470 5473 5475 5476 5478 5478 5482 5483 5481 5483 5485 5485 5484 5484 5484 5482 5481 5479 5476 5473 5470 5466 5463 5460 5460 5460
5364 5375 5382 5389 5395 5401 5407 5413 5421 5428 5432 5438 5444 5449 5453 5457 5461 5464 5466 5468 5470 5471 5473 5476 5477 5476 5478 5480 5480 5480 5480 5479 5478 5477 5475 5473 5470 5466 5462 5459 5457 5456 5456 5456
5384 5390 5396 5400 5406 5411 5417 5423 5427 5432 5435 5439 5443 5447 5451 5456 5458 5460 5462 5464 5465 5467 5471 5472 5471 5474 5475 5475 5476 5476 5475 5474 5473 5471 5470 5467 5464 5459 5455 5453 5452 5452 5452 5453
5395 5401 5406 5410 5414 5418 5422 5425 5428 5431 5435 5439 5443 5447 5450 5453 5454 5457 5459 5460 5462 5466 5467 5467 5469 5470 5471 5471 5471 5471 5470 5469 5467 5466 5464 5462 5459 5455 5451 5449 5450 5449 5449 5450
5404 5409 5413 5416 5419 5421 5423 5426 5430 5434 5436 5439 5443 5446 5448 5449 5451 5453 5455 5458 5460 5462 5463 5465 5466 5466 5466 5467 5467 5466 5465 5463 5461 5460 5458 5456 5454 5451 5449 5447 5447 5447 5447 5447
5410 5412 5414 5417 5418 5420 5423 5426 5429 5431 5435 5437 5439 5442 5443 5446 5449 5451 5453 5456 5457 5459 5460 5461 5461 5462 5462 5463 5462 5461 5460 5458 5456 5454 5452 5451 5449 5448 5446 5445 5444 5444 5444 5444